Theta_e
305 304 304 303 303 303 303 303 302 302 302 301 301 300 300 300 301 301 301 301 301 301 301 301 301 301 301 301 301 302 302 301 299 298 297 297 296 296 296 296 295 295
304 304 304 304 303 303 303 302 302 302 302 302 301 301 300 299 299 300 301 301 300 300 300 300 300 300 300 301 300 300 300 300 299 298 298 297 297 297 297 296 296 296
303 303 304 304 304 303 303 302 302 302 301 302 302 302 301 300 299 299 300 301 301 300 300 300 300 299 300 300 300 300 300 299 298 298 298 297 297 297 296 296 296 296
302 302 303 303 303 303 303 303 302 302 301 301 301 301 302 302 301 300 300 300 301 300 300 300 300 299 299 299 299 299 300 299 298 298 297 297 297 296 296 296 296 296
299 300 300 301 301 302 302 303 303 302 302 301 301 300 301 301 301 301 301 300 301 300 300 300 299 299 299 299 299 299 299 299 299 298 297 297 297 296 296 296 296 296
299 299 299 299 299 300 300 301 301 302 302 302 301 301 301 300 300 300 300 300 300 300 300 300 299 299 298 298 298 299 299 299 299 299 298 298 298 297 296 296 296 296
298 298 298 298 298 298 298 299 299 300 301 301 301 301 301 301 301 301 300 299 299 299 299 299 299 299 299 298 298 298 298 298 298 298 299 299 299 298 297 297 296 296
296 297 297 297 297 297 297 298 298 298 299 299 300 300 300 300 301 301 301 300 299 299 298 298 298 298 298 298 298 297 297 297 297 297 298 298 299 299 298 298 298 298
293 294 295 296 296 297 297 297 297 297 297 298 298 298 299 299 300 300 301 301 300 299 299 298 298 297 297 297 297 297 297 296 296 296 297 297 297 298 298 298 298 299
291 291 291 292 293 295 295 296 296 296 296 296 296 297 297 297 298 298 299 300 300 300 299 298 298 297 297 297 296 296 296 297 296 296 296 296 296 296 297 297 297 298
289 289 289 289 290 291 292 292 293 294 294 295 295 296 296 297 297 297 297 298 298 299 299 299 298 297 297 297 296 296 296 295 296 296 296 296 296 295 295 295 296 296
289 289 288 288 288 288 289 289 290 291 291 291 292 293 294 295 296 296 296 296 296 297 297 298 298 298 297 296 296 296 296 295 295 295 296 296 296 296 295 295 295 295
288 288 288 287 287 287 287 288 288 288 289 289 290 290 291 292 293 294 295 295 295 295 295 295 296 297 297 297 296 296 295 295 295 295 295 295 295 295 295 295 295 295
287 287 287 287 287 287 287 287 287 287 287 288 288 288 289 289 290 291 292 292 293 293 293 293 293 294 295 295 296 296 295 295 294 294 295 295 295 294 294 294 295 295
287 287 287 287 287 287 287 286 286 286 286 287 287 287 287 288 288 288 289 289 290 291 291 291 291 292 292 292 293 294 295 295 294 294 293 294 294 294 294 294 294 294
286 286 286 286 286 286 286 286 286 286 286 286 286 286 286 287 287 287 287 287 288 288 289 289 289 290 290 290 290 291 292 293 294 293 293 293 293 293 293 294 295 295
286 286 286 286 286 286 286 286 286 286 286 286 286 286 286 286 286 286 286 286 286 287 287 287 288 288 288 288 288 289 289 290 292 293 293 292 292 292 292 293 293 294
286 286 286 286 286 286 286 286 286 286 286 286 286 286 286 286 286 286 286 286 286 286 286 286 286 287 287 286 286 286 287 288 289 290 291 292 292 292 291 291 291 292
286 286 286 286 286 286 286 286 286 286 286 286 286 286 286 286 286 286 286 286 286 286 286 286 286 286 286 286 286 285 286 286 286 288 289 290 291 292 292 291 291 290
286 286 286 287 286 286 286 286 286 286 286 285 285 286 286 286 286 286 286 286 286 286 286 286 286 286 286 286 285 285 285 285 285 286 286 287 289 291 291 292 291 290
286 286 286 286 286 286 286 286 286 286 286 285 285 285 285 286 286 286 286 286 286 286 286 286 286 286 286 286 286 285 285 285 285 285 285 286 287 288 289 291 291 291
286 286 286 286 286 286 286 286 286 286 286 285 285 285 285 285 285 285 286 286 286 286 286 286 286 286 286 286 286 286 285 285 285 285 285 285 286 286 287 288 289 291
285 285 285 286 286 286 286 286 286 286 286 285 285 285 285 285 285 285 285 285 286 286 286 286 286 286 286 286 286 286 286 285 285 284 285 285 285 285 285 286 287 288
284 284 284 284 285 285 286 285 285 285 285 285 284 285 285 285 285 285 285 286 285 285 286 286 286 286 286 286 286 286 286 286 285 285 284 284 285 285 285 285 286 286
283 282 282 282 283 283 284 284 284 284 284 283 283 284 284 284 285 285 285 285 286 286 286 285 286 286 286 286 286 286 286 286 286 285 285 284 284 285 285 285 285 285
281 281 281 280 280 281 281 281 282 282 282 282 282 283 283 283 284 284 284 285 285 285 285 285 285 286 286 286 286 286 286 285 285 285 285 285 284 284 284 285 285 285
Wind_Speed
22 20 19 18 17 17 17 17 18 19 19 19 19 18 19 22 24 24 22 21 22 21 21 22 23 26 28 32 37 41 46 50 52 53 52 52 52 52 51 51 52 51
22 22 21 20 19 18 17 18 18 19 20 20 21 21 19 19 23 25 23 22 22 22 22 22 23 24 26 28 31 36 40 45 49 51 52 53 53 52 51 51 52 52
22 22 22 22 21 20 19 18 17 17 18 18 19 21 21 21 21 22 21 21 22 21 21 22 23 24 25 26 28 32 35 39 44 47 50 52 53 52 51 51 51 52
22 22 22 23 22 22 21 20 18 17 17 16 16 17 19 20 20 20 20 20 21 21 20 21 21 22 24 25 26 29 31 34 38 42 46 49 51 52 52 51 52 52
22 22 22 22 22 22 22 21 20 19 18 18 17 16 17 18 19 20 20 20 21 21 20 21 21 22 22 23 25 27 28 31 33 36 41 45 47 49 51 51 52 53
21 21 21 21 21 21 20 20 20 20 20 20 19 19 18 18 18 19 20 21 22 23 22 22 22 22 22 23 25 26 27 29 30 32 36 40 42 45 48 50 52 53
18 19 20 20 20 20 20 20 20 20 20 21 20 20 19 19 18 19 20 22 23 24 24 24 24 23 23 24 25 26 27 29 29 31 33 36 37 41 44 47 50 52
16 16 17 17 18 18 19 20 20 21 21 21 21 20 19 19 18 18 18 20 22 23 25 26 26 25 25 25 26 26 27 28 29 31 33 34 35 38 41 43 45 48
14 13 13 14 16 17 18 19 20 20 21 22 22 22 21 20 19 18 18 18 19 20 23 25 26 26 26 26 27 28 28 28 29 30 32 33 35 37 39 40 43 45
16 15 14 14 14 15 17 18 19 19 20 21 21 22 22 23 22 22 20 19 18 18 19 21 23 26 26 27 28 28 29 29 30 31 32 33 35 36 37 39 42 44
21 20 20 19 18 17 16 17 18 19 20 20 21 21 22 22 24 24 24 23 21 20 18 18 18 21 24 27 28 29 29 29 30 31 33 33 34 35 37 39 41 43
23 23 23 23 22 21 20 19 19 19 20 20 21 21 21 22 22 23 25 25 24 23 21 19 18 17 18 21 25 28 30 31 31 32 33 33 34 36 37 39 41 42
23 23 24 24 24 23 23 22 22 21 21 22 22 22 22 22 22 23 24 25 25 25 24 23 21 19 17 17 19 21 25 29 32 33 34 34 34 36 37 40 42 42
24 24 24 24 25 25 25 25 24 23 23 24 24 24 24 24 24 23 23 24 25 26 27 26 25 23 21 20 19 19 20 23 27 30 33 34 35 36 37 39 41 42
28 28 28 27 26 26 26 26 26 26 25 25 25 25 25 25 25 25 24 24 24 25 26 27 27 27 25 24 23 22 21 21 23 25 28 31 33 35 37 39 41 42
29 30 31 31 30 30 29 28 28 28 27 26 25 25 25 25 25 25 25 25 25 25 25 26 27 27 27 27 26 25 25 24 24 25 26 28 30 33 36 38 39 41
29 30 31 31 32 32 33 33 32 32 31 29 28 27 26 26 26 26 26 26 27 27 27 27 27 27 27 27 27 27 27 27 27 27 27 28 30 32 35 36 37 38
30 31 32 33 33 33 33 34 34 35 35 35 34 32 30 29 28 28 28 28 28 28 28 28 28 27 27 27 27 27 28 29 30 30 29 29 30 32 34 37 38 38
31 32 33 34 35 35 36 36 36 36 36 37 38 38 37 35 34 32 31 30 30 30 31 31 30 28 27 27 28 28 28 29 30 32 32 32 33 33 34 36 38 40
34 34 35 36 36 37 38 38 39 38 38 38 39 40 40 40 40 39 37 35 33 33 33 34 33 31 30 29 29 29 29 29 31 32 33 34 35 35 35 36 37 39
38 39 40 40 39 40 40 40 41 41 40 41 41 42 42 42 42 42 42 42 40 38 37 37 36 35 33 32 32 31 30 31 32 33 34 35 36 37 37 37 37 38
42 44 45 46 45 44 45 45 45 44 44 43 44 45 45 44 44 44 44 44 45 44 44 43 41 38 37 36 35 34 33 33 34 35 36 37 38 38 38 38 38 38
46 46 48 50 52 51 50 50 49 49 48 47 47 48 47 47 47 48 47 47 47 47 48 49 48 45 42 40 38 37 36 35 36 37 38 39 40 40 40 39 40 39
47 47 48 51 54 55 55 54 53 53 51 50 51 51 51 50 50 50 51 50 50 50 50 50 52 51 49 46 43 40 38 38 38 39 39 40 41 41 41 41 42 42
48 49 50 51 53 55 56 56 55 55 54 53 53 55 55 54 54 54 54 54 53 53 53 52 53 53 52 52 50 45 41 39 40 41 41 42 42 42 43 43 43 43
50 50 50 51 52 55 56 57 57 57 56 55 55 56 56 56 57 57 57 57 56 55 55 55 55 54 54 54 53 51 47 43 41 42 43 43 43 44 44 44 44 44
Wind_Direction
10 8 1 349 336 324 314 308 302 297 294 291 289 290 293 296 299 299 299 298 297 292 287 282 277 272 267 262 259 256 253 252 251 250 250 249 248 247 245 244 243 242
10 11 9 6 359 348 335 323 312 303 298 295 292 290 287 288 292 296 298 298 296 293 289 285 281 277 272 267 263 260 257 254 253 251 250 249 248 248 247 246 246 245
7 9 8 9 8 4 357 347 333 319 310 304 300 296 294 291 290 292 295 294 292 291 290 287 284 281 277 274 270 265 262 259 256 254 253 252 250 250 249 247 247 247
4 5 4 4 4 3 2 359 352 344 334 324 314 306 303 300 295 291 290 288 287 286 285 285 284 282 280 279 276 272 268 265 261 257 256 255 253 252 251 249 248 247
4 3 1 0 359 357 356 355 354 353 350 344 336 326 319 312 306 300 294 289 286 284 282 281 280 279 278 277 276 274 273 270 267 262 260 258 255 254 253 251 250 249
357 357 356 355 353 353 352 351 351 350 350 351 348 342 335 328 321 315 307 300 294 289 285 281 279 278 277 276 275 274 273 272 270 268 265 262 260 257 255 254 253 252
347 346 346 346 346 346 345 345 345 346 347 347 348 347 343 339 333 325 318 311 305 300 294 288 283 279 277 277 275 275 274 273 272 270 267 265 263 260 258 256 255 254
341 338 337 337 339 339 338 339 339 340 341 340 341 342 342 342 340 334 327 319 312 306 301 297 292 286 282 279 277 276 275 274 274 272 269 268 266 263 261 260 258 257
343 338 333 330 329 331 333 335 337 337 336 335 335 335 335 337 338 337 334 327 320 313 306 301 298 294 289 284 281 278 276 275 274 273 271 271 269 267 265 263 262 260
347 345 342 339 333 331 331 331 333 333 332 331 330 330 330 332 333 333 333 330 327 322 314 305 299 296 293 289 285 282 279 277 276 273 272 271 270 270 269 267 265 262
344 344 345 345 344 341 337 333 331 330 329 327 325 324 324 325 326 328 329 329 328 326 323 317 307 298 293 289 287 285 282 279 275 273 272 271 271 271 270 269 267 264
337 338 340 341 342 342 341 338 335 331 329 328 326 325 323 321 320 320 322 323 324 323 323 322 318 309 299 291 287 285 284 281 278 275 272 270 269 270 270 269 267 265
331 333 334 335 337 337 337 337 336 333 331 329 327 327 325 324 321 318 317 317 317 318 318 319 320 319 316 307 296 287 282 279 278 277 275 272 270 268 269 268 268 266
329 328 329 330 331 332 332 332 332 331 330 328 327 326 325 324 322 320 317 315 315 315 316 317 318 319 322 322 317 308 294 282 276 273 273 273 272 270 269 268 268 267
326 326 325 325 325 326 327 327 327 327 326 326 325 324 322 321 320 319 317 314 313 312 314 316 317 318 321 323 324 322 316 304 290 279 272 270 268 268 268 268 268 268
319 320 320 321 321 321 321 322 322 322 321 321 321 320 319 317 315 315 315 314 313 311 311 311 313 316 319 321 322 322 320 316 308 297 286 277 271 266 264 264 265 267
312 312 312 313 315 316 316 316 317 316 315 315 314 314 314 313 312 311 311 311 311 311 311 310 310 313 316 319 319 318 317 315 313 308 300 291 282 275 270 268 266 266
307 306 306 307 308 308 308 309 310 311 311 310 309 308 308 307 307 307 307 307 308 308 309 309 309 310 312 315 316 315 315 313 310 309 306 300 294 286 280 276 274 272
304 304 303 302 303 303 303 303 304 304 305 305 305 304 304 304 303 302 302 302 303 303 304 305 306 307 310 311 311 311 312 310 308 306 304 303 301 297 291 284 279 276
305 303 301 300 299 299 299 299 299 300 300 300 300 300 300 300 301 300 299 298 298 298 299 299 300 302 305 307 307 308 307 306 305 303 302 301 300 300 298 294 288 282
306 304 302 300 299 299 299 297 297 296 296 296 296 295 295 295 295 296 296 296 296 295 294 294 294 297 300 301 303 305 306 305 303 301 301 300 299 299 298 298 297 292
308 307 305 302 301 300 300 299 298 297 296 294 293 291 290 291 290 290 290 290 291 292 293 292 291 291 293 295 298 301 304 306 304 301 299 298 297 297 297 297 297 296
307 306 304 303 302 301 300 299 299 297 295 294 292 289 288 287 287 287 287 286 286 287 288 289 289 289 289 290 293 296 300 303 303 302 300 297 296 296 296 296 296 295
304 303 301 301 300 300 299 298 297 295 294 292 290 288 287 286 285 284 284 284 284 284 284 285 286 287 288 288 289 290 294 297 299 300 299 298 296 295 295 295 295 295
302 301 299 298 297 297 297 296 294 293 291 289 288 287 286 285 284 283 282 281 281 281 281 282 282 283 285 286 287 287 288 289 292 295 296 296 296 295 294 294 293 293
299 298 296 294 293 294 294 293 292 290 289 287 285 284 284 283 282 282 281 280 279 279 279 279 279 280 281 283 284 285 285 285 286 289 291 293 294 294 294 293 291 290